Weather Service Report


200 
ASUS46 KSTO 241515
RWRCA 

NORTHERN AND CENTRAL CA REGIONAL WEATHER ROUNDUP
NATIONAL WEATHER SERVICE SACRAMENTO CA 
700 AM PST SAT FEB 24 2018

NOTE: FAIR INDICATES FEW OR NO CLOUDS BELOW 12,000 FEET WITH NO
SIGNIFICANT WEATHER AND/OR OBSTRUCTIONS TO VISIBILITY.

CAZ001-003-241600-
NORTHWEST AREA
  
CITY           SKY/WX    TMP DP  RH WIND       PRES   REMARKS
CRESCENT CITY  LGT RAIN  44  40  85 S13       30.37S                  
UKIAH          CLEAR     28  23  81 CALM      30.42R                  
$$

CAZ006-505>513-241600-
BAY AREA
  
CITY           SKY/WX    TMP DP  RH WIND       PRES   REMARKS
SANTA ROSA     PTCLDY    27  26  96 CALM      30.39R                  
SAN RAFAEL     N/A       37  MM  MM MISG
NAPA           CLEAR     27  23  85 CALM      30.40S                  
CONCORD        CLEAR     36  25  64 CALM      30.39S                  
OAKLAND CITY   N/A      MM  MM  MM MISG
OAKLAND        PTCLDY    37  31  78 SE8       30.41R WCI  31          
SAN FRAN CITY  N/A       41  MM  79 MISG
SAN FRAN ARPT  PTCLDY    44  35  70 SW6       30.41R                  
LIVERMORE      CLEAR     27  19  72 NE3       30.40R                  
HAYWARD        CLEAR     35  25  66 SE5       30.41R WCI  31          
REDWOOD CITY   N/A       30  MM  80 MISG
MOFFETT ARPT   CLEAR     36  26  67 S3        30.42S                  
SAN JOSE ARPT  CLEAR     36  27  69 SE9       30.41S WCI  29          
$$
CAZ034-037-514>518-241600-
CENTRAL COAST
  
CITY           SKY/WX    TMP DP  RH WIND       PRES   REMARKS
WATSONVILLE    CLEAR     29  23  78 N3        30.44R                  
SALINAS        CLEAR     31  23  72 SE9       30.42S WCI  23          
MONTEREY       CLEAR     35  21  56 CALM      30.42R                  
SAN LUIS OBISP CLEAR     39  20  46 CALM      30.40S                  
SANTA MARIA    CLEAR     39  19  44 N10       30.39S WCI  32          
$$
CAZ015-016-241600-
NORTHERN SACRAMENTO VALLEY
  
CITY           SKY/WX    TMP DP  RH WIND       PRES   REMARKS
REDDING        MOCLDY    26  20  77 CALM      30.32R                  
RED BLUFF      MOCLDY    29  22  75 NE3       30.35S                  
OROVILLE       CLEAR     30  23  75 E7        30.38F WCI  23          
$$
CAZ016>018-241600-
SOUTHERN SACRAMENTO VALLEY
  
CITY           SKY/WX    TMP DP  RH WIND       PRES   REMARKS
AUBURN         CLEAR     34  18  51 E8        30.34R WCI  27          
BEALE AFB      CLEAR     29  20  67 E8        30.37R WCI  21          
LINCOLN        FAIR      28  21  74 E7        30.37S WCI  21          
MARYSVILLE     CLEAR     28  23  81 CALM      30.39R                  
SAC INTL ARPT  PTCLDY    31  25  78 SE6       30.38S WCI  25          
MATHER AIRPORT CLEAR     28  23  80 MISG      30.39R                  
DOWNTOWN SAC   N/A       31  MM  MM MISG
SAC EXEC ARPT  CLEAR     32  26  78 SE3       30.39R                  
VACAVILLE      CLEAR     25  20  81 CALM      30.38F                  
TRAVIS AFB     CLEAR     29  28  96 SW10      30.36S WCI  20          
$$
CAZ019>021-241600-
SAN JOAQUIN VALLEY
  
CITY           SKY/WX    TMP DP  RH WIND       PRES   REMARKS
STOCKTON       CLEAR     29  22  75 SE7       30.39S WCI  22          
MODESTO        CLEAR     29  25  85 E5        30.40R WCI  24          
MERCED         CLEAR     27  21  78 SE5       30.40S WCI  22          
LEMOORE        CLEAR     27  16  63 SW9       30.43R WCI  18          
FRESNO         PTCLDY    32  25  75 SE5       30.42R WCI  27          
HANFORD        CLEAR     29  26  89 SE5       30.43S WCI  24          
PORTERVILLE    CLEAR     31  26  82 SE6       30.43S WCI  25          
BAKERSFIELD    CLEAR     38  23  55 E5        30.42S WCI  34          
$$
CAZ011-012-071-241600-
NORTHERN MOUNTAINS
  
CITY           SKY/WX    TMP DP  RH WIND       PRES   REMARKS
YREKA          CLOUDY    29  22  75 W3        30.20F                  
MOUNT SHASTA   CLOUDY    23  16  74 CALM      30.17S                  
ALTURAS        CLOUDY    21  15  78 CALM      30.11F                  
$$
CAZ011-012-071-241600-
SIERRA NEVADA MTNS
  
CITY           SKY/WX    TMP DP  RH WIND       PRES   REMARKS
BLUE CANYON    CLEAR     28   4  35 S6        30.23S WCI  22          
TRUCKEE        CLEAR      0  -4  85 CALM      30.19F                  
TAHOE VLY ARPT CLEAR     14   9  80 CALM      30.17F                  
MAMMOTH LAKES  FAIR      -2  -5  84 W5        30.17F WCI -12          
$$
  

Return to Home page


Western Regional Climate Center, wrcc@dri.edu